User: anonymous   Login
Location: Unspecified
(0.0000°N, 0.0000°E)
Time: 03:25:04
(UTC+00:00)
Language:

STARLINK-11631 [DTC] - Orbit

View from above orbital plane
View from above orbital plane
View from above satellite
View from above satellite

Ground track
Ground track

The orbit is defined by the following mean orbital elements,

1 63195U          26145.61033767 +.00000000 +00000-0 +11615-2 0 00004
2 63195  43.0003 216.7021 0001535 264.2897  95.7795 15.70840751    07
Epoch (UTC): 25 May 2026 14:38:53
Eccentricity: 0.0001535
inclination: 43.0003°
perigee height: 355 km
apogee height: 358 km
right ascension of ascending node: 216.7021°
argument of perigee: 264.2897°
revolutions per day: 15.70840751
mean anomaly at epoch: 95.7795°

The dashed part of the orbit path shows where the satellite is in the earth's shadow,  

DLR